NOAA 16 DEB, 41376

Orbit data source: Space-Track

NOAA 16 DEB, 41376 is space debris in SSO originally from a launch on Thu, 21 Sep 2000 UTC launched from the Air Force Western Test Range (AFWTR). Debris objects in space refer to the collection of defunct objects orbiting the Earth. Examples of debris include non-operational satellites, rocket bodies, and fragments generated from explosions, collisions, or faulty payload assembly.

Loading next visibility...
Identifier
41376, 2000-055JV
Orbit
SSO
Country
Flag of USUS
Related business
Manufacturer
Unknown
Mission
Spacecraft
Bus & Motor
Unknown
Mass
Unknown
Launch date (UTC)
2000-09-21 (25 years ago)
Launch vehicle
Unknown
Launch site
Air Force Western Test Range (AFWTR)
Object type
Payload
Rocket body
Debris
Shape & HBR
Unknown shape, 0.1 m
Radar Cross Section
Small (<0.1 m²)

Expand to show TLE details & history
Last TLE update: 11 hours ago

TLE from 11 hours ago
0 NOAA 16 DEB
1 41376U 00055JV  25292.20913205  .00010326  00000-0  39124-2 0  9996
2 41376  98.7373  24.1350 0016320 262.1210  97.8121 14.31240121505019
Epoch: 2025-10-19T05:01Z
TLE epoch observation values (Epoch: 2025-10-19T05:01:09.009Z)
Latitude
0.00008°
Longitude
-79.08163°
Altitude
792.126 km
Speed
7.457 km/s
True Right ascension
01h 36m 32s
True Declination
0° 00' 00"
Sunlit
Object was in full shadow at epoch
Visualization orbit readout
Latitude
Unknown
Longitude
Unknown
Altitude
Unknown
Speed
Unknown
Apparent Right ascension
Unknown
Apparent Declination
Unknown
Sunlit
N/A
Visualization observer readout
Local Sidereal Time
10:30:20
Azimuth
Unknown
Elevation
Unknown
Doppler factor
Unknown
Orbital elements
Apogee altitude
796.423 km
Perigee altitude
773.044 km
Semi-major axis
7,162.87 km
Eccentricity
0.00163
Inclination
98.7373°
RAAN
24.135°
Arg. of periapsis
262.121°
True anomaly
97.99733°
Mean anomaly
97.8121°
Eccentric anomaly
97.90472°
Mean motion
3.58024 °/min
Orbital period
100.55 mins
BSTAR
0.0039124
Loading maneuver chart data...
Computing Atmospheric mass density...

Documentation

Showing up to 5 results
|